CAPE
0 0 0 0 0 0 0 0 0 0 0 0 0 0 0 0 0 0 0 0 0 0
0 0 0 0 0 0 0 0 0 0 0 0 0 0 0 0 0 0 0 0 0 0
0 0 0 0 0 0 0 0 0 0 0 0 0 0 0 0 0 0 0 0 0 0
0 0 0 0 0 0 0 0 0 0 0 0 0 0 0 0 0 0 0 0 0 0
0 0 0 0 0 0 0 0 0 0 0 0 0 0 0 0 0 0 0 0 0 0
0 0 0 0 0 0 0 0 0 0 0 0 0 0 0 0 0 0 0 0 0 0
0 0 0 0 0 0 0 0 0 0 0 0 0 0 0 0 0 0 0 0 0 0
0 0 0 0 0 0 0 0 0 0 0 0 0 0 0 0 0 0 0 0 0 0
0 0 0 0 0 0 0 0 0 0 0 0 0 0 0 0 0 0 0 0 0 0
0 0 0 0 0 0 0 0 0 0 0 0 0 0 0 0 0 0 0 0 0 0
0 0 0 0 0 0 0 0 0 0 0 0 0 0 0 0 0 0 0 0 0 0
0 0 0 0 0 0 0 0 0 0 0 0 0 0 0 0 0 0 0 0 0 0
0 0 0 0 0 0 0 0 0 0 0 0 0 0 0 0 0 0 0 0 0 0
0 0 0 0 0 0 0 0 0 0 0 0 0 0 0 0 0 0 0 0 0 0
CIN
0 0 0 0 0 0 0 0 0 0 0 0 0 0 0 0 0 0 0 0 0 0
0 0 0 0 0 0 0 0 0 0 0 0 0 0 0 0 0 0 0 0 0 0
0 0 0 0 0 0 0 0 0 0 0 0 0 0 0 0 0 0 0 0 0 0
0 0 0 0 0 0 0 0 0 0 0 0 0 0 0 0 0 0 0 0 0 0
0 0 0 0 0 0 0 0 0 0 0 0 0 0 0 0 0 0 0 0 0 0
0 0 0 0 0 0 0 0 0 0 0 0 0 0 0 0 0 0 0 0 0 0
0 0 0 0 0 0 0 0 0 0 0 0 0 0 0 0 0 0 0 0 0 0
0 0 0 0 0 0 0 0 0 0 0 0 0 0 0 0 0 0 0 0 0 0
0 0 0 0 0 0 0 0 0 0 0 0 0 0 0 0 0 0 0 0 0 0
0 0 0 0 0 0 0 0 0 0 0 0 0 0 0 0 0 0 0 0 0 0
0 0 0 0 0 0 0 0 0 0 0 0 0 0 0 0 0 0 0 0 0 0
0 0 0 0 0 0 0 0 0 0 0 0 0 0 0 0 0 0 0 0 0 0
0 0 0 0 0 0 0 0 0 0 0 0 0 0 0 0 0 0 0 0 0 0
0 0 0 0 0 0 0 0 0 0 0 0 0 0 0 0 0 0 0 0 0 0
Wind_Speed
16 10 10 12 12 9 8 9 11 9 8 8 7 5 4 3 1 1 2 3 4 5
14 16 14 14 12 9 10 10 11 10 9 8 6 4 3 1 1 2 3 4 4 5
14 14 13 14 13 12 11 12 11 10 9 7 5 4 2 1 1 3 4 3 6 6
12 14 14 12 13 13 13 12 11 10 8 7 5 3 2 2 3 5 5 5 6 7
15 15 14 13 13 14 13 12 11 10 8 6 4 1 2 4 4 6 7 7 7 8
15 15 14 13 13 13 13 12 10 9 7 6 3 0 3 4 6 7 7 7 8 8
14 14 13 13 13 12 11 11 9 8 7 5 3 1 3 5 7 8 8 8 7 8
14 14 13 13 12 12 11 9 8 8 6 4 2 1 5 7 8 8 9 8 8 8
16 15 14 13 11 10 9 9 7 6 5 3 0 3 5 7 8 10 9 8 9 9
15 15 14 13 11 11 9 7 6 5 3 1 1 1 6 9 8 9 8 9 8 9
14 14 13 12 10 10 7 6 4 4 2 1 1 1 7 10 9 8 9 8 9 9
14 13 12 11 10 8 6 5 3 2 1 2 4 3 6 9 9 8 9 8 9 9
13 12 11 10 8 4 5 4 2 1 3 1 5 3 6 9 7 9 7 9 10 15
12 12 10 8 7 5 4 2 1 3 3 3 4 5 7 10 8 7 8 8 7 8
Wind_Direction
147 155 155 148 149 150 150 153 152 146 135 136 136 137 145 145 176 254 267 284 294 296
150 151 152 144 146 143 137 139 145 140 139 138 136 144 150 178 226 251 262 281 278 278
145 145 146 142 145 133 136 143 141 140 139 140 139 141 178 211 218 276 284 284 292 295
137 137 135 139 132 132 140 141 140 139 140 142 143 149 219 263 280 271 285 285 286 295
136 132 129 136 130 138 137 137 135 139 138 134 129 136 287 284 281 285 291 293 294 295
138 133 131 128 134 133 132 129 131 133 134 129 117 194 297 298 295 294 291 292 292 295
131 125 125 127 126 124 124 126 129 123 115 113 118 344 301 293 293 290 293 293 287 289
125 119 118 119 121 121 122 119 117 119 115 112 103 34 329 310 301 299 297 296 293 292
120 123 118 118 113 106 111 116 124 114 116 118 132 68 302 305 307 301 296 301 305 304
122 119 119 117 123 123 123 124 124 134 118 125 266 75 315 311 298 298 294 298 299 302
113 113 116 120 124 115 128 135 136 121 124 281 258 95 313 310 294 297 295 295 296 299
116 118 118 116 118 122 134 141 130 141 239 286 297 127 315 320 312 305 298 304 304 303
109 114 115 115 123 128 117 123 135 215 276 289 277 313 327 325 312 307 315 314 310 319
103 110 113 118 119 122 121 130 196 255 265 281 300 310 316 321 313 316 316 307 316 307